Time,TemperatureF,DewpointF,PressureIn,WindDirection,WindDirectionDegrees,WindSpeedMPH,WindSpeedGustMPH,Humidity,HourlyPrecipIn,Conditions,Clouds,dailyrainin,SolarRadiationWatts/m^2,SoftwareType,DateUTC
2013-04-27 00:01:00,47.0,22.0,-100.00,NNW,343,1.0,7.0,37,0.00,,,0.00,0.000000,,2013-04-27 04:01:00,
2013-04-27 00:23:00,47.0,22.0,-100.00,NNW,343,1.0,7.0,37,0.00,,,0.00,0.000000,,2013-04-27 04:23:00,
2013-04-27 00:33:00,47.0,22.0,-100.00,NNW,343,1.0,7.0,37,0.00,,,0.00,0.000000,,2013-04-27 04:33:00,
2013-04-27 00:43:00,47.0,22.0,-100.00,NNW,343,1.0,7.0,37,0.00,,,0.00,0.000000,,2013-04-27 04:43:00,
2013-04-27 00:53:00,47.0,22.0,-100.00,NNW,343,1.0,7.0,37,0.00,,,0.00,0.000000,,2013-04-27 04:53:00,
2013-04-27 01:01:00,48.0,22.0,-100.00,NE,53,3.0,4.0,36,0.00,,,0.00,0.000000,,2013-04-27 05:01:00,
2013-04-27 01:22:00,48.0,22.0,-100.00,NE,53,3.0,4.0,36,0.00,,,0.00,0.000000,,2013-04-27 05:22:00,
2013-04-27 01:32:00,48.0,22.0,-100.00,NE,53,3.0,4.0,36,0.00,,,0.00,0.000000,,2013-04-27 05:32:00,
2013-04-27 01:42:00,48.0,22.0,-100.00,NE,53,3.0,4.0,36,0.00,,,0.00,0.000000,,2013-04-27 05:42:00,
2013-04-27 01:52:00,48.0,22.0,-100.00,NE,53,3.0,4.0,36,0.00,,,0.00,0.000000,,2013-04-27 05:52:00,
2013-04-27 02:01:00,47.0,23.0,-100.00,NE,43,4.0,5.0,39,0.00,,,0.00,0.000000,,2013-04-27 06:01:00,
2013-04-27 02:22:00,47.0,23.0,-100.00,NE,43,4.0,5.0,39,0.00,,,0.00,0.000000,,2013-04-27 06:22:00,
2013-04-27 02:32:00,47.0,23.0,-100.00,NE,43,4.0,5.0,39,0.00,,,0.00,0.000000,,2013-04-27 06:32:00,
2013-04-27 02:42:00,47.0,23.0,-100.00,NE,43,4.0,5.0,39,0.00,,,0.00,0.000000,,2013-04-27 06:42:00,
2013-04-27 02:52:00,47.0,23.0,-100.00,NE,43,4.0,5.0,39,0.00,,,0.00,0.000000,,2013-04-27 06:52:00,
2013-04-27 03:01:00,47.0,23.0,-100.00,NE,47,3.0,5.0,39,0.00,,,0.00,0.000000,,2013-04-27 07:01:00,
2013-04-27 03:22:00,47.0,23.0,-100.00,NE,47,3.0,5.0,39,0.00,,,0.00,0.000000,,2013-04-27 07:22:00,
2013-04-27 03:32:00,47.0,23.0,-100.00,NE,47,3.0,5.0,39,0.00,,,0.00,0.000000,,2013-04-27 07:32:00,
2013-04-27 03:42:00,47.0,23.0,-100.00,NE,47,3.0,5.0,39,0.00,,,0.00,0.000000,,2013-04-27 07:42:00,
2013-04-27 03:52:00,47.0,23.0,-100.00,NE,47,3.0,5.0,39,0.00,,,0.00,0.000000,,2013-04-27 07:52:00,
2013-04-27 04:01:00,46.0,24.0,-100.00,NE,44,4.0,4.0,41,0.00,,,0.00,0.000000,,2013-04-27 08:01:00,
2013-04-27 04:22:00,46.0,24.0,-100.00,NE,44,4.0,4.0,41,0.00,,,0.00,0.000000,,2013-04-27 08:22:00,
2013-04-27 04:33:00,46.0,24.0,-100.00,NE,44,4.0,4.0,41,0.00,,,0.00,0.000000,,2013-04-27 08:33:00,
2013-04-27 04:42:00,46.0,24.0,-100.00,NE,44,4.0,4.0,41,0.00,,,0.00,0.000000,,2013-04-27 08:42:00,
2013-04-27 04:52:00,46.0,24.0,-100.00,NE,44,4.0,4.0,41,0.00,,,0.00,0.000000,,2013-04-27 08:52:00,
2013-04-27 05:01:00,46.0,24.0,-100.00,NE,44,2.0,6.0,42,0.00,,,0.00,0.000000,,2013-04-27 09:01:00,
2013-04-27 05:33:00,46.0,24.0,-100.00,NE,44,2.0,6.0,42,0.00,,,0.00,0.000000,,2013-04-27 09:33:00,
2013-04-27 05:43:00,46.0,24.0,-100.00,NE,44,2.0,6.0,42,0.00,,,0.00,0.000000,,2013-04-27 09:43:00,
2013-04-27 05:53:00,46.0,24.0,-100.00,NE,44,2.0,6.0,42,0.00,,,0.00,0.000000,,2013-04-27 09:53:00,
2013-04-27 06:01:00,46.0,24.0,-100.00,NE,48,2.0,4.0,42,0.00,,,0.00,0.000000,,2013-04-27 10:01:00,
2013-04-27 06:33:00,46.0,24.0,-100.00,NE,48,2.0,4.0,42,0.00,,,0.00,0.000000,,2013-04-27 10:33:00,
2013-04-27 06:42:00,46.0,24.0,-100.00,NE,48,2.0,4.0,42,0.00,,,0.00,0.000000,,2013-04-27 10:42:00,
2013-04-27 06:52:00,46.0,24.0,-100.00,NE,48,2.0,4.0,42,0.00,,,0.00,0.000000,,2013-04-27 10:52:00,
2013-04-27 07:01:00,45.0,25.0,-100.00,NE,45,3.0,5.0,45,0.00,,,0.00,20.000000,,2013-04-27 11:01:00,
2013-04-27 07:32:00,45.0,25.0,-100.00,NE,45,3.0,5.0,45,0.00,,,0.00,20.000000,,2013-04-27 11:32:00,
2013-04-27 07:42:00,45.0,25.0,-100.00,NE,45,3.0,5.0,45,0.00,,,0.00,20.000000,,2013-04-27 11:42:00,
2013-04-27 07:52:00,45.0,25.0,-100.00,NE,45,3.0,5.0,45,0.00,,,0.00,20.000000,,2013-04-27 11:52:00,
2013-04-27 08:01:00,47.0,27.0,-100.00,ENE,71,2.0,4.0,45,0.00,,,0.00,91.000000,,2013-04-27 12:01:00,
2013-04-27 08:32:00,47.0,27.0,-100.00,ENE,71,2.0,4.0,45,0.00,,,0.00,91.000000,,2013-04-27 12:32:00,
2013-04-27 08:42:00,47.0,27.0,-100.00,ENE,71,2.0,4.0,45,0.00,,,0.00,91.000000,,2013-04-27 12:42:00,
2013-04-27 08:52:00,47.0,27.0,-100.00,ENE,71,2.0,4.0,45,0.00,,,0.00,91.000000,,2013-04-27 12:52:00,
2013-04-27 09:01:00,55.0,32.0,-100.00,ENE,77,2.0,6.0,42,0.00,,,0.00,363.000000,,2013-04-27 13:01:00,
2013-04-27 09:32:00,55.0,32.0,-100.00,ENE,77,2.0,6.0,42,0.00,,,0.00,363.000000,,2013-04-27 13:32:00,
2013-04-27 09:42:00,55.0,32.0,-100.00,ENE,77,2.0,6.0,42,0.00,,,0.00,363.000000,,2013-04-27 13:42:00,
2013-04-27 09:52:00,55.0,32.0,-100.00,ENE,77,2.0,6.0,42,0.00,,,0.00,363.000000,,2013-04-27 13:52:00,
2013-04-27 10:01:00,56.0,31.0,-100.00,SW,217,5.0,8.0,39,0.00,,,0.00,611.000000,,2013-04-27 14:01:00,
2013-04-27 10:32:00,56.0,31.0,-100.00,SW,217,5.0,8.0,39,0.00,,,0.00,611.000000,,2013-04-27 14:32:00,
2013-04-27 10:42:00,56.0,31.0,-100.00,SW,217,5.0,8.0,39,0.00,,,0.00,611.000000,,2013-04-27 14:42:00,
2013-04-27 10:52:00,56.0,31.0,-100.00,SW,217,5.0,8.0,39,0.00,,,0.00,611.000000,,2013-04-27 14:52:00,
2013-04-27 11:01:00,60.0,32.0,-100.00,SW,214,5.0,10.0,34,0.00,,,0.00,790.000000,,2013-04-27 15:01:00,
2013-04-27 11:33:00,60.0,32.0,-100.00,SW,214,5.0,10.0,34,0.00,,,0.00,790.000000,,2013-04-27 15:33:00,
2013-04-27 11:43:00,60.0,32.0,-100.00,SW,214,5.0,10.0,34,0.00,,,0.00,790.000000,,2013-04-27 15:43:00,
2013-04-27 11:53:00,60.0,32.0,-100.00,SW,214,5.0,10.0,34,0.00,,,0.00,790.000000,,2013-04-27 15:53:00,
2013-04-27 12:01:00,63.0,31.0,-100.00,South,169,4.0,10.0,30,0.00,,,0.00,928.000000,,2013-04-27 16:01:00,
2013-04-27 12:23:00,63.0,31.0,-100.00,South,169,4.0,10.0,30,0.00,,,0.00,928.000000,,2013-04-27 16:23:00,
2013-04-27 12:33:00,63.0,31.0,-100.00,South,169,4.0,10.0,30,0.00,,,0.00,928.000000,,2013-04-27 16:33:00,
2013-04-27 12:42:00,63.0,31.0,-100.00,South,169,4.0,10.0,30,0.00,,,0.00,928.000000,,2013-04-27 16:42:00,
2013-04-27 12:53:00,63.0,31.0,-100.00,South,169,4.0,10.0,30,0.00,,,0.00,928.000000,,2013-04-27 16:53:00,
2013-04-27 13:01:00,67.0,30.0,-100.00,South,173,5.0,12.0,25,0.00,,,0.00,1040.000000,,2013-04-27 17:01:00,
2013-04-27 13:32:00,67.0,30.0,-100.00,South,173,5.0,12.0,25,0.00,,,0.00,1040.000000,,2013-04-27 17:32:00,
2013-04-27 13:42:00,67.0,30.0,-100.00,South,173,5.0,12.0,25,0.00,,,0.00,1040.000000,,2013-04-27 17:42:00,
2013-04-27 13:53:00,67.0,30.0,-100.00,South,173,5.0,12.0,25,0.00,,,0.00,1040.000000,,2013-04-27 17:53:00,
2013-04-27 14:01:00,67.0,27.0,-100.00,South,184,6.0,13.0,22,0.00,,,0.00,991.000000,,2013-04-27 18:01:00,
2013-04-27 14:22:00,67.0,27.0,-100.00,South,184,6.0,13.0,22,0.00,,,0.00,991.000000,,2013-04-27 18:22:00,
2013-04-27 14:32:00,67.0,27.0,-100.00,South,184,6.0,13.0,22,0.00,,,0.00,991.000000,,2013-04-27 18:32:00,
2013-04-27 14:42:00,67.0,27.0,-100.00,South,184,6.0,13.0,22,0.00,,,0.00,991.000000,,2013-04-27 18:42:00,
2013-04-27 14:52:00,67.0,27.0,-100.00,South,184,6.0,13.0,22,0.00,,,0.00,991.000000,,2013-04-27 18:52:00,
2013-04-27 15:01:00,66.0,28.0,-100.00,SSW,197,7.0,15.0,24,0.00,,,0.00,904.000000,,2013-04-27 19:01:00,
2013-04-27 15:22:00,66.0,28.0,-100.00,SSW,197,7.0,15.0,24,0.00,,,0.00,904.000000,,2013-04-27 19:22:00,
2013-04-27 15:32:00,66.0,28.0,-100.00,SSW,197,7.0,15.0,24,0.00,,,0.00,904.000000,,2013-04-27 19:32:00,
2013-04-27 15:42:00,66.0,28.0,-100.00,SSW,197,7.0,15.0,24,0.00,,,0.00,904.000000,,2013-04-27 19:42:00,
2013-04-27 15:53:00,66.0,28.0,-100.00,SSW,197,7.0,15.0,24,0.00,,,0.00,904.000000,,2013-04-27 19:53:00,
2013-04-27 16:01:00,64.0,30.0,-100.00,South,191,8.0,17.0,28,0.00,,,0.00,588.000000,,2013-04-27 20:01:00,
2013-04-27 16:32:00,64.0,30.0,-100.00,South,191,8.0,17.0,28,0.00,,,0.00,588.000000,,2013-04-27 20:32:00,
2013-04-27 16:42:00,64.0,30.0,-100.00,South,191,8.0,17.0,28,0.00,,,0.00,588.000000,,2013-04-27 20:42:00,
2013-04-27 16:52:00,64.0,30.0,-100.00,South,191,8.0,17.0,28,0.00,,,0.00,588.000000,,2013-04-27 20:52:00,
2013-04-27 17:01:00,61.0,33.0,-100.00,SSW,198,8.0,16.0,35,0.00,,,0.00,321.000000,,2013-04-27 21:01:00,
2013-04-27 17:22:00,61.0,33.0,-100.00,SSW,198,8.0,16.0,35,0.00,,,0.00,321.000000,,2013-04-27 21:22:00,
2013-04-27 17:33:00,61.0,33.0,-100.00,SSW,198,8.0,16.0,35,0.00,,,0.00,321.000000,,2013-04-27 21:33:00,
2013-04-27 17:43:00,61.0,33.0,-100.00,SSW,198,8.0,16.0,35,0.00,,,0.00,321.000000,,2013-04-27 21:43:00,
2013-04-27 17:53:00,61.0,33.0,-100.00,SSW,198,8.0,16.0,35,0.00,,,0.00,321.000000,,2013-04-27 21:53:00,
2013-04-27 18:01:00,59.0,33.0,-100.00,SSW,198,8.0,18.0,38,0.00,,,0.00,122.000000,,2013-04-27 22:01:00,
2013-04-27 18:32:00,59.0,33.0,-100.00,SSW,198,8.0,18.0,38,0.00,,,0.00,122.000000,,2013-04-27 22:32:00,
2013-04-27 18:42:00,59.0,33.0,-100.00,SSW,198,8.0,18.0,38,0.00,,,0.00,122.000000,,2013-04-27 22:42:00,
2013-04-27 18:53:00,59.0,33.0,-100.00,SSW,198,8.0,18.0,38,0.00,,,0.00,122.000000,,2013-04-27 22:53:00,
2013-04-27 19:01:00,57.0,36.0,-100.00,SSW,204,8.0,13.0,45,0.00,,,0.00,102.000000,,2013-04-27 23:01:00,
2013-04-27 19:22:00,57.0,36.0,-100.00,SSW,204,8.0,13.0,45,0.00,,,0.00,102.000000,,2013-04-27 23:22:00,
2013-04-27 19:32:00,57.0,36.0,-100.00,SSW,204,8.0,13.0,45,0.00,,,0.00,102.000000,,2013-04-27 23:32:00,
2013-04-27 19:42:00,57.0,36.0,-100.00,SSW,204,8.0,13.0,45,0.00,,,0.00,102.000000,,2013-04-27 23:42:00,
2013-04-27 19:52:00,57.0,36.0,-100.00,SSW,204,8.0,13.0,45,0.00,,,0.00,102.000000,,2013-04-27 23:52:00,
2013-04-27 20:01:00,55.0,37.0,-100.00,SSW,192,8.0,15.0,51,0.00,,,0.00,33.000000,,2013-04-28 00:01:00,
2013-04-27 20:22:00,55.0,37.0,-100.00,SSW,192,8.0,15.0,51,0.00,,,0.00,33.000000,,2013-04-28 00:22:00,
2013-04-27 20:32:00,55.0,37.0,-100.00,SSW,192,8.0,15.0,51,0.00,,,0.00,33.000000,,2013-04-28 00:32:00,
2013-04-27 20:43:00,55.0,37.0,-100.00,SSW,192,8.0,15.0,51,0.00,,,0.00,33.000000,,2013-04-28 00:43:00,
2013-04-27 20:52:00,55.0,37.0,-100.00,SSW,192,8.0,15.0,51,0.00,,,0.00,33.000000,,2013-04-28 00:52:00,
2013-04-27 21:01:00,54.0,40.0,-100.00,SSW,201,9.0,16.0,58,0.00,,,0.00,1.000000,,2013-04-28 01:01:00,
2013-04-27 21:22:00,54.0,40.0,-100.00,SSW,201,9.0,16.0,58,0.00,,,0.00,1.000000,,2013-04-28 01:22:00,
2013-04-27 21:32:00,54.0,40.0,-100.00,SSW,201,9.0,16.0,58,0.00,,,0.00,1.000000,,2013-04-28 01:32:00,
2013-04-27 21:42:00,54.0,40.0,-100.00,SSW,201,9.0,16.0,58,0.00,,,0.00,1.000000,,2013-04-28 01:42:00,
2013-04-27 21:52:00,54.0,40.0,-100.00,SSW,201,9.0,16.0,58,0.00,,,0.00,1.000000,,2013-04-28 01:52:00,
2013-04-27 22:01:00,53.0,41.0,-100.00,SSW,197,7.0,13.0,63,0.00,,,0.00,0.000000,,2013-04-28 02:01:00,
2013-04-27 22:32:00,53.0,41.0,-100.00,SSW,197,7.0,13.0,63,0.00,,,0.00,0.000000,,2013-04-28 02:32:00,
2013-04-27 22:42:00,53.0,41.0,-100.00,SSW,197,7.0,13.0,63,0.00,,,0.00,0.000000,,2013-04-28 02:42:00,
2013-04-27 22:52:00,53.0,41.0,-100.00,SSW,197,7.0,13.0,63,0.00,,,0.00,0.000000,,2013-04-28 02:52:00,
2013-04-27 23:01:00,52.0,-99.9,-100.00,SSW,196,8.0,12.0,67,0.00,,,0.00,0.000000,,2013-04-28 03:01:00,
2013-04-27 23:22:00,52.0,41.0,-100.00,SSW,196,8.0,12.0,67,0.00,,,0.00,0.000000,,2013-04-28 03:22:00,
2013-04-27 23:33:00,52.0,41.0,-100.00,SSW,196,8.0,12.0,67,0.00,,,0.00,0.000000,,2013-04-28 03:33:00,
2013-04-27 23:43:00,52.0,41.0,-100.00,SSW,196,8.0,12.0,67,0.00,,,0.00,0.000000,,2013-04-28 03:43:00,
2013-04-27 23:53:00,52.0,41.0,-100.00,SSW,196,8.0,12.0,67,0.00,,,0.00,0.000000,,2013-04-28 03:53:00,